Location: Buchberg
(46.9333°N, 15.8500°E)
Time: 09:48:59
(UTC+00:00)

Cosmos 921 Rocket - Pass Details

Date: 14 July 2020
Orbit: 572 x 632 km, 75.8° (Epoch: 07 August)

Event Time Altitude Azimuth Distance (km) Brightness Sun altitude
Rises 02:06:49 0° 331° (NNW) 2,896 6.8 -9.9°
Reaches altitude 10° 02:09:18 10° 321° (NW) 1,976 5.7 -9.6°
Maximum altitude 02:13:06 29° 261° (W) 1,117 4.0 -9.1°
Drops below altitude 10° 02:16:49 10° 201° (SSW) 1,929 5.0 -8.7°
Enters shadow 02:17:09 - 199° (SSW) 2,049 5.2 -8.6°
